DAL1075 KDTW-KRSW

Flight info

Callsign DAL1075
Flight time 2h 23m
Altitude 34000
Route CLVIN3 STAZE VXV/N0443F330 TEUFL/N0445F340 CYNTA SHFTY6
Aircraft B753/M-SDE2E3FGHIJ3J4J7RWXY/LB1

Departure

Time 2026-05-06 21:53
Airport Detroit Metropolitan Wayne County Airport (KDTW)

Arrival

Time 2026-05-07 00:16
Airport Southwest Florida International Airport (KRSW)
Time Latitude Longitude Altitude Speed Heading
2026-05-06 21:33 42.21322 -83.35517 644 ft 0 kts 118°
2026-05-06 21:44 42.21328 -83.35532 644 ft 2 kts 118°
2026-05-06 21:44 42.21333 -83.35544 644 ft 2 kts 117°
2026-05-06 21:44 42.21337 -83.35563 644 ft 2 kts 93°
2026-05-06 21:45 42.21336 -83.35583 644 ft 2 kts 76°
2026-05-06 21:45 42.21330 -83.35602 644 ft 2 kts 57°
2026-05-06 21:45 42.21325 -83.35610 644 ft 1 kts 46°
2026-05-06 21:45 42.21323 -83.35613 644 ft 0 kts 48°
2026-05-06 21:47 42.21327 -83.35608 644 ft 2 kts 39°
2026-05-06 21:48 42.21361 -83.35593 644 ft 7 kts
2026-05-06 21:48 42.21418 -83.35565 644 ft 10 kts 28°
2026-05-06 21:48 42.21495 -83.35510 644 ft 14 kts 28°
2026-05-06 21:48 42.21549 -83.35399 642 ft 17 kts 88°
2026-05-06 21:49 42.21552 -83.35227 640 ft 18 kts 88°
2026-05-06 21:49 42.21516 -83.35099 640 ft 14 kts 146°
2026-05-06 21:49 42.21431 -83.35031 640 ft 13 kts 152°
2026-05-06 21:49 42.21354 -83.34967 640 ft 12 kts 149°
2026-05-06 21:50 42.21289 -83.34928 640 ft 9 kts 187°
2026-05-06 21:50 42.21234 -83.34959 640 ft 8 kts 209°
2026-05-06 21:50 42.21183 -83.35000 640 ft 8 kts 213°
2026-05-06 21:50 42.21137 -83.35040 640 ft 7 kts 211°
2026-05-06 21:51 42.21086 -83.35071 640 ft 8 kts 204°
2026-05-06 21:51 42.21029 -83.35109 640 ft 9 kts 208°
2026-05-06 21:51 42.20963 -83.35159 640 ft 11 kts 210°
2026-05-06 21:51 42.20888 -83.35215 640 ft 13 kts 204°
2026-05-06 21:52 42.20832 -83.35192 640 ft 7 kts 131°
2026-05-06 21:52 42.20805 -83.35121 640 ft 8 kts 85°
2026-05-06 21:52 42.20857 -83.35069 638 ft 19 kts 28°
2026-05-06 21:52 42.21145 -83.34858 640 ft 75 kts 29°
2026-05-06 21:53 42.21781 -83.34387 641 ft 129 kts 29°
2026-05-06 21:53 42.22710 -83.33688 684 ft 170 kts 26°
2026-05-06 21:53 42.23727 -83.32918 1211 ft 167 kts 27°
2026-05-06 21:53 42.24630 -83.31835 1446 ft 189 kts 56°
2026-05-06 21:54 42.25262 -83.30154 1601 ft 213 kts 61°
2026-05-06 21:54 42.25960 -83.28288 1849 ft 232 kts 60°
2026-05-06 21:54 42.26720 -83.26280 2190 ft 246 kts 60°
2026-05-06 21:54 42.27474 -83.24216 2710 ft 253 kts 68°
2026-05-06 21:55 42.27711 -83.21801 2924 ft 273 kts 98°
2026-05-06 21:55 42.27027 -83.19378 3375 ft 278 kts 122°
2026-05-06 21:55 42.25984 -83.17165 3911 ft 280 kts 122°
2026-05-06 21:55 42.25459 -83.16002 4187 ft 280 kts 121°
2026-05-06 21:56 42.24683 -83.14277 4602 ft 281 kts 121°
2026-05-06 21:56 42.23653 -83.11998 5047 ft 284 kts 124°
2026-05-06 21:56 42.22303 -83.10103 5491 ft 285 kts 150°
2026-05-06 21:57 42.20454 -83.09212 5891 ft 284 kts 178°
2026-05-06 21:57 42.18529 -83.09542 6290 ft 281 kts 203°
2026-05-06 21:57 42.16707 -83.10554 7012 ft 285 kts 206°
2026-05-06 21:57 42.14941 -83.11564 8334 ft 273 kts 208°
2026-05-06 21:58 42.13217 -83.12597 9245 ft 276 kts 209°
2026-05-06 21:58 42.11488 -83.13654 10262 ft 273 kts 210°
2026-05-06 21:58 42.09734 -83.14742 10856 ft 288 kts 210°
2026-05-06 21:58 42.07869 -83.15909 11291 ft 306 kts 211°
2026-05-06 21:59 42.05886 -83.17147 11875 ft 318 kts 210°
2026-05-06 21:59 42.03923 -83.18369 12864 ft 316 kts 211°
2026-05-06 21:59 42.01921 -83.19622 13687 ft 319 kts 211°
2026-05-06 21:59 41.99922 -83.20869 14611 ft 318 kts 211°
2026-05-06 22:00 41.97924 -83.22182 15272 ft 322 kts 214°
2026-05-06 22:00 41.95969 -83.23575 16165 ft 320 kts 214°
2026-05-06 22:00 41.94016 -83.24951 16865 ft 323 kts 214°
2026-05-06 22:00 41.92032 -83.26350 17691 ft 321 kts 214°
2026-05-06 22:01 41.90057 -83.27743 18343 ft 323 kts 214°
2026-05-06 22:01 41.88072 -83.29141 18870 ft 329 kts 214°
2026-05-06 22:01 41.86040 -83.30570 19551 ft 330 kts 215°
2026-05-06 22:01 41.83998 -83.32004 20141 ft 332 kts 215°
2026-05-06 22:02 41.81952 -83.33443 20649 ft 337 kts 215°
2026-05-06 22:02 41.79891 -83.34888 21361 ft 334 kts 216°
2026-05-06 22:02 41.77834 -83.36332 21788 ft 340 kts 216°
2026-05-06 22:02 41.75721 -83.37811 22470 ft 338 kts 217°
2026-05-06 22:03 41.73661 -83.39255 22941 ft 341 kts 217°
2026-05-06 22:03 41.71545 -83.40730 23463 ft 345 kts 216°
2026-05-06 22:03 41.69284 -83.41901 24130 ft 350 kts 210°
2026-05-06 22:03 41.66987 -83.42938 24614 ft 351 kts 211°
2026-05-06 22:04 41.64694 -83.43988 25136 ft 352 kts 211°
2026-05-06 22:04 41.62370 -83.45050 25624 ft 353 kts 211°
2026-05-06 22:04 41.60032 -83.46110 26044 ft 355 kts 212°
2026-05-06 22:04 41.57713 -83.47156 26790 ft 349 kts 212°
2026-05-06 22:05 41.55404 -83.48205 27015 ft 356 kts 212°
2026-05-06 22:05 41.53092 -83.49247 27720 ft 350 kts 212°
2026-05-06 22:05 41.50760 -83.50303 27955 ft 356 kts 213°
2026-05-06 22:05 41.48418 -83.51360 28415 ft 356 kts 212°
2026-05-06 22:06 41.46108 -83.52395 28843 ft 356 kts 214°
2026-05-06 22:06 41.43722 -83.53476 29221 ft 357 kts 214°
2026-05-06 22:06 41.41393 -83.54519 29716 ft 355 kts 213°
2026-05-06 22:06 41.38929 -83.55364 29901 ft 377 kts 204°
2026-05-06 22:07 41.36272 -83.55654 30245 ft 391 kts 199°
2026-05-06 22:07 41.33570 -83.55830 30579 ft 392 kts 200°
2026-05-06 22:07 41.30823 -83.56029 30690 ft 398 kts 200°
2026-05-06 22:07 41.28081 -83.56207 31222 ft 393 kts 200°
2026-05-06 22:08 41.22539 -83.56583 31777 ft 396 kts 200°
2026-05-06 22:08 41.19847 -83.56750 32220 ft 393 kts 201°
2026-05-06 22:08 41.17116 -83.56941 32480 ft 393 kts 201°
2026-05-06 22:09 41.14394 -83.57117 32842 ft 392 kts 201°
2026-05-06 22:09 41.11648 -83.57307 32990 ft 396 kts 201°
2026-05-06 22:09 41.08918 -83.57485 33391 ft 392 kts 202°
2026-05-06 22:09 41.06181 -83.57669 33571 ft 394 kts 202°
2026-05-06 22:10 41.03437 -83.57852 33849 ft 394 kts 202°
2026-05-06 22:10 41.00720 -83.58028 33942 ft 390 kts 203°
2026-05-06 22:10 40.95318 -83.58388 33949 ft 390 kts 202°
2026-05-06 22:11 40.89861 -83.58755 33945 ft 393 kts 202°
2026-05-06 22:11 40.84478 -83.59100 33943 ft 387 kts 202°
2026-05-06 22:12 40.79043 -83.59467 33945 ft 390 kts 202°
2026-05-06 22:12 40.73654 -83.59821 33950 ft 391 kts 202°
2026-05-06 22:13 40.68212 -83.60176 33972 ft 391 kts 201°
2026-05-06 22:13 40.62809 -83.60529 33946 ft 388 kts 202°
2026-05-06 22:14 40.57401 -83.60883 33940 ft 390 kts 202°
2026-05-06 22:14 40.51979 -83.61239 33944 ft 390 kts 202°
2026-05-06 22:15 40.46541 -83.61594 33952 ft 392 kts 202°
2026-05-06 22:15 40.41105 -83.61948 33951 ft 393 kts 202°
2026-05-06 22:16 40.35621 -83.62304 33950 ft 392 kts 202°
2026-05-06 22:16 40.30214 -83.62653 33951 ft 391 kts 202°
2026-05-06 22:17 40.24759 -83.63009 33945 ft 393 kts 202°
2026-05-06 22:17 40.19278 -83.63362 33943 ft 393 kts 202°
2026-05-06 22:18 40.13867 -83.63709 33942 ft 392 kts 202°
2026-05-06 22:18 40.08422 -83.64061 33933 ft 393 kts 202°
2026-05-06 22:19 40.02922 -83.64416 33937 ft 394 kts 202°
2026-05-06 22:19 39.97488 -83.64762 33931 ft 392 kts 202°
2026-05-06 22:20 39.92014 -83.65114 33964 ft 390 kts 202°
2026-05-06 22:20 39.86503 -83.65476 33979 ft 397 kts 201°
2026-05-06 22:21 39.81010 -83.65823 33974 ft 398 kts 201°
2026-05-06 22:21 39.75515 -83.66166 33959 ft 392 kts 201°
2026-05-06 22:22 39.70036 -83.66522 33963 ft 395 kts 201°
2026-05-06 22:22 39.64548 -83.66870 33985 ft 394 kts 201°
2026-05-06 22:23 39.59131 -83.67211 33979 ft 390 kts 201°
2026-05-06 22:23 39.53645 -83.67565 33975 ft 394 kts 201°
2026-05-06 22:24 39.48176 -83.67910 33980 ft 395 kts 201°
2026-05-06 22:24 39.42693 -83.68259 33990 ft 396 kts 201°
2026-05-06 22:25 39.37188 -83.68605 33975 ft 397 kts 201°
2026-05-06 22:25 39.31662 -83.68951 33981 ft 394 kts 200°
2026-05-06 22:26 39.26218 -83.69292 33979 ft 391 kts 201°
2026-05-06 22:26 39.20779 -83.69636 33977 ft 392 kts 201°
2026-05-06 22:27 39.15255 -83.69988 33987 ft 396 kts 200°
2026-05-06 22:27 39.09808 -83.70322 33979 ft 391 kts 201°
2026-05-06 22:28 39.04389 -83.70660 33976 ft 388 kts 200°
2026-05-06 22:28 38.98954 -83.71008 33997 ft 393 kts 200°
2026-05-06 22:29 38.93480 -83.71349 33980 ft 396 kts 201°
2026-05-06 22:29 38.87980 -83.71687 33987 ft 394 kts 200°
2026-05-06 22:30 38.82490 -83.72030 33981 ft 396 kts 200°
2026-05-06 22:30 38.76956 -83.72379 33981 ft 402 kts 200°
2026-05-06 22:31 38.71389 -83.72716 33977 ft 397 kts 200°
2026-05-06 22:31 38.65894 -83.73056 33995 ft 396 kts 200°
2026-05-06 22:32 38.60379 -83.73395 33992 ft 393 kts 200°
2026-05-06 22:32 38.54922 -83.73738 34006 ft 397 kts 200°
2026-05-06 22:33 38.49372 -83.74079 33996 ft 400 kts 199°
2026-05-06 22:33 38.43804 -83.74419 33985 ft 400 kts 200°
2026-05-06 22:34 38.38240 -83.74760 33980 ft 397 kts 199°
2026-05-06 22:34 38.32719 -83.75100 33975 ft 399 kts 200°
2026-05-06 22:35 38.27157 -83.75441 33968 ft 402 kts 200°
2026-05-06 22:35 38.21542 -83.75786 33981 ft 404 kts 199°
2026-05-06 22:36 38.15947 -83.76127 33978 ft 404 kts 199°
2026-05-06 22:36 38.10296 -83.76472 33984 ft 406 kts 200°
2026-05-06 22:37 38.04680 -83.76809 33982 ft 401 kts 199°
2026-05-06 22:37 37.99101 -83.77152 33972 ft 404 kts 199°
2026-05-06 22:38 37.93469 -83.77493 33971 ft 407 kts 199°
2026-05-06 22:38 37.87740 -83.77843 33976 ft 410 kts 199°
2026-05-06 22:39 37.82138 -83.78172 33969 ft 402 kts 199°
2026-05-06 22:39 37.76471 -83.78526 33974 ft 411 kts 199°
2026-05-06 22:40 37.70795 -83.78861 33969 ft 407 kts 199°
2026-05-06 22:40 37.65151 -83.79200 33969 ft 404 kts 199°
2026-05-06 22:41 37.56671 -83.79713 33966 ft 408 kts 199°
2026-05-06 22:42 37.51007 -83.80051 33973 ft 408 kts 199°
2026-05-06 22:42 37.45305 -83.80394 33970 ft 408 kts 199°
2026-05-06 22:43 37.39654 -83.80731 33966 ft 409 kts 199°
2026-05-06 22:43 37.33932 -83.81073 33959 ft 410 kts 198°
2026-05-06 22:44 37.28252 -83.81409 33970 ft 407 kts 198°
2026-05-06 22:44 37.22596 -83.81749 33973 ft 410 kts 199°
2026-05-06 22:45 37.16890 -83.82086 33966 ft 409 kts 199°
2026-05-06 22:45 37.11246 -83.82419 33974 ft 407 kts 198°
2026-05-06 22:46 37.05533 -83.82764 33975 ft 413 kts 198°
2026-05-06 22:46 36.99838 -83.83096 33968 ft 408 kts 198°
2026-05-06 22:47 36.94105 -83.83440 33971 ft 415 kts 198°
2026-05-06 22:47 36.88366 -83.83772 33958 ft 408 kts 198°
2026-05-06 22:48 36.82689 -83.84105 33969 ft 407 kts 199°
2026-05-06 22:48 36.77009 -83.84447 33980 ft 414 kts 198°
2026-05-06 22:49 36.71263 -83.84779 33965 ft 410 kts 198°
2026-05-06 22:49 36.65555 -83.85114 33965 ft 409 kts 198°
2026-05-06 22:50 36.59904 -83.85445 33964 ft 410 kts 198°
2026-05-06 22:50 36.54159 -83.85782 33962 ft 412 kts 198°
2026-05-06 22:51 36.48436 -83.86118 33961 ft 415 kts 198°
2026-05-06 22:51 36.42621 -83.86457 33959 ft 417 kts 197°
2026-05-06 22:52 36.36884 -83.86784 33950 ft 409 kts 197°
2026-05-06 22:52 36.31165 -83.87123 33947 ft 416 kts 198°
2026-05-06 22:53 36.25387 -83.87457 33948 ft 415 kts 198°
2026-05-06 22:53 36.19616 -83.87791 33949 ft 415 kts 197°
2026-05-06 22:54 36.13855 -83.88123 33948 ft 415 kts 197°
2026-05-06 22:54 36.08094 -83.88456 33954 ft 413 kts 197°
2026-05-06 22:55 36.02353 -83.88787 33953 ft 413 kts 197°
2026-05-06 22:55 35.96574 -83.89123 33956 ft 417 kts 197°
2026-05-06 22:56 35.90697 -83.89005 33967 ft 440 kts 184°
2026-05-06 22:56 35.87630 -83.88086 33961 ft 460 kts 174°
2026-05-06 22:56 35.84634 -83.86660 33958 ft 468 kts 171°
2026-05-06 22:57 35.78601 -83.83689 33953 ft 467 kts 171°
2026-05-06 22:57 35.72582 -83.80743 33934 ft 463 kts 171°
2026-05-06 22:58 35.66544 -83.77809 33941 ft 467 kts 171°
2026-05-06 22:58 35.60503 -83.74876 33954 ft 472 kts 170°
2026-05-06 22:59 35.54425 -83.71918 33964 ft 466 kts 170°
2026-05-06 22:59 35.48370 -83.68990 33960 ft 471 kts 171°
2026-05-06 23:00 35.42245 -83.66029 33976 ft 470 kts 170°
2026-05-06 23:00 35.36201 -83.63111 33986 ft 470 kts 169°
2026-05-06 23:01 35.30123 -83.60177 33986 ft 465 kts 169°
2026-05-06 23:01 35.24097 -83.57282 33999 ft 469 kts 169°
2026-05-06 23:02 35.18030 -83.54366 33991 ft 467 kts 168°
2026-05-06 23:02 35.11946 -83.51449 33992 ft 470 kts 168°
2026-05-06 23:03 35.05892 -83.48547 34016 ft 467 kts 168°
2026-05-06 23:03 34.99846 -83.45654 34029 ft 465 kts 168°
2026-05-06 23:04 34.93803 -83.42773 34006 ft 468 kts 167°
2026-05-06 23:04 34.87655 -83.39842 33997 ft 471 kts 168°
2026-05-06 23:05 34.81550 -83.36938 33976 ft 473 kts 168°
2026-05-06 23:05 34.75373 -83.34001 33950 ft 473 kts 168°
2026-05-06 23:06 34.69288 -83.31113 33969 ft 471 kts 169°
2026-05-06 23:06 34.63147 -83.28204 33958 ft 470 kts 169°
2026-05-06 23:07 34.57039 -83.25320 33951 ft 473 kts 169°
2026-05-06 23:07 34.50868 -83.22407 33951 ft 474 kts 169°
2026-05-06 23:08 34.44727 -83.19510 33945 ft 473 kts 169°
2026-05-06 23:08 34.38543 -83.16605 33945 ft 481 kts 169°
2026-05-06 23:09 34.32267 -83.13655 33932 ft 481 kts 169°
2026-05-06 23:09 34.26101 -83.10757 33954 ft 475 kts 169°
2026-05-06 23:10 34.19925 -83.07868 33940 ft 478 kts 169°
2026-05-06 23:10 34.13700 -83.04956 33951 ft 478 kts 169°
2026-05-06 23:11 34.07494 -83.02062 33948 ft 479 kts 169°
2026-05-06 23:11 34.01288 -82.99167 33953 ft 479 kts 169°
2026-05-06 23:12 33.95095 -82.96285 33950 ft 479 kts 169°
2026-05-06 23:12 33.88840 -82.93380 33944 ft 482 kts 169°
2026-05-06 23:13 33.82543 -82.90459 33958 ft 482 kts 168°
2026-05-06 23:13 33.76281 -82.87559 33963 ft 484 kts 169°
2026-05-06 23:14 33.70005 -82.84654 33954 ft 482 kts 169°
2026-05-06 23:14 33.63731 -82.81759 33960 ft 483 kts 168°
2026-05-06 23:15 33.57502 -82.78886 33959 ft 483 kts 168°
2026-05-06 23:15 33.51206 -82.75989 33955 ft 484 kts 168°
2026-05-06 23:16 33.44905 -82.73092 33966 ft 484 kts 168°
2026-05-06 23:16 33.38629 -82.70213 33957 ft 486 kts 168°
2026-05-06 23:17 33.32313 -82.67317 33955 ft 484 kts 168°
2026-05-06 23:17 33.25998 -82.64431 33958 ft 486 kts 168°
2026-05-06 23:18 33.19671 -82.61540 33961 ft 486 kts 168°
2026-05-06 23:18 33.13366 -82.58665 33965 ft 486 kts 168°
2026-05-06 23:19 33.07024 -82.55778 33975 ft 485 kts 168°
2026-05-06 23:19 33.00716 -82.52911 33977 ft 488 kts 168°
2026-05-06 23:20 32.94372 -82.50029 33977 ft 485 kts 168°
2026-05-06 23:20 32.88023 -82.47154 33980 ft 491 kts 168°
2026-05-06 23:21 32.81689 -82.44283 33979 ft 485 kts 168°
2026-05-06 23:21 32.75343 -82.41419 33977 ft 488 kts 167°
2026-05-06 23:22 32.69008 -82.38562 33957 ft 490 kts 168°
2026-05-06 23:22 32.62661 -82.35701 33994 ft 489 kts 168°
2026-05-06 23:23 32.56274 -82.32828 33972 ft 487 kts 168°
2026-05-06 23:23 32.49957 -82.29992 33979 ft 489 kts 168°
2026-05-06 23:24 32.43612 -82.27146 33983 ft 488 kts 168°
2026-05-06 23:24 32.37212 -82.24281 33982 ft 489 kts 168°
2026-05-06 23:25 32.30837 -82.21432 33987 ft 491 kts 168°
2026-05-06 23:25 32.24450 -82.18580 33980 ft 489 kts 168°
2026-05-06 23:26 32.18224 -82.15804 33977 ft 489 kts 168°
2026-05-06 23:26 32.11862 -82.12974 33986 ft 491 kts 168°
2026-05-06 23:27 32.05470 -82.10133 33985 ft 491 kts 167°
2026-05-06 23:27 31.99088 -82.07301 33982 ft 488 kts 168°
2026-05-06 23:28 31.92721 -82.04481 33987 ft 491 kts 167°
2026-05-06 23:28 31.86220 -82.02457 33990 ft 472 kts 184°
2026-05-06 23:29 31.79736 -82.02402 33974 ft 464 kts 191°
2026-05-06 23:29 31.73310 -82.02666 33982 ft 461 kts 192°
2026-05-06 23:30 31.66890 -82.03011 33983 ft 460 kts 192°
2026-05-06 23:30 31.60517 -82.03379 33978 ft 459 kts 192°
2026-05-06 23:31 31.54093 -82.03763 33996 ft 463 kts 192°
2026-05-06 23:31 31.47699 -82.04143 33990 ft 459 kts 192°
2026-05-06 23:32 31.41279 -82.04530 33989 ft 462 kts 192°
2026-05-06 23:32 31.34857 -82.04914 33982 ft 463 kts 192°
2026-05-06 23:33 31.28421 -82.05297 33976 ft 461 kts 192°
2026-05-06 23:33 31.21994 -82.05682 33984 ft 460 kts 192°
2026-05-06 23:34 31.15587 -82.06065 33986 ft 463 kts 192°
2026-05-06 23:34 31.09117 -82.06450 33985 ft 462 kts 191°
2026-05-06 23:35 31.02695 -82.06833 33989 ft 463 kts 192°
2026-05-06 23:35 30.96258 -82.07215 33992 ft 463 kts 191°
2026-05-06 23:36 30.89816 -82.07597 33992 ft 462 kts 192°
2026-05-06 23:36 30.83351 -82.07981 33989 ft 462 kts 192°
2026-05-06 23:37 30.76925 -82.08362 33989 ft 465 kts 191°
2026-05-06 23:37 30.70425 -82.08746 33991 ft 465 kts 191°
2026-05-06 23:38 30.64004 -82.09125 33992 ft 464 kts 191°
2026-05-06 23:38 30.57570 -82.09605 33995 ft 461 kts 193°
2026-05-06 23:39 30.51130 -82.10213 33994 ft 461 kts 193°
2026-05-06 23:39 30.44762 -82.10809 34005 ft 461 kts 193°
2026-05-06 23:40 30.38324 -82.11410 33993 ft 464 kts 193°
2026-05-06 23:40 30.31915 -82.12006 33999 ft 461 kts 193°
2026-05-06 23:41 30.25510 -82.12602 33998 ft 463 kts 193°
2026-05-06 23:41 30.19024 -82.13026 34012 ft 472 kts 185°
2026-05-06 23:42 30.12440 -82.11947 33999 ft 478 kts 178°
2026-05-06 23:42 30.05878 -82.10654 34002 ft 479 kts 178°
2026-05-06 23:43 29.99317 -82.09342 34002 ft 478 kts 178°
2026-05-06 23:43 29.92751 -82.08025 34012 ft 480 kts 177°
2026-05-06 23:44 29.87290 -82.06927 34011 ft 480 kts 177°
2026-05-06 23:44 29.80689 -82.05602 34028 ft 480 kts 177°
2026-05-06 23:45 29.74114 -82.04282 34025 ft 481 kts 177°
2026-05-06 23:45 29.67552 -82.02966 34025 ft 477 kts 177°
2026-05-06 23:46 29.60991 -82.01657 34030 ft 480 kts 177°
2026-05-06 23:46 29.54381 -82.00335 34020 ft 479 kts 177°
2026-05-06 23:47 29.47827 -81.99029 34034 ft 480 kts 177°
2026-05-06 23:47 29.41262 -81.97720 34021 ft 480 kts 177°
2026-05-06 23:48 29.34665 -81.96409 34027 ft 478 kts 177°
2026-05-06 23:48 29.28108 -81.95110 34037 ft 477 kts 177°
2026-05-06 23:49 29.21565 -81.93817 34034 ft 479 kts 177°
2026-05-06 23:49 29.14999 -81.92520 34035 ft 479 kts 177°
2026-05-06 23:50 29.08397 -81.91217 34041 ft 479 kts 176°
2026-05-06 23:50 28.98543 -81.89275 34039 ft 479 kts 177°
2026-05-06 23:51 28.92012 -81.87991 34042 ft 478 kts 177°
2026-05-06 23:51 28.85470 -81.86706 33908 ft 477 kts 176°
2026-05-06 23:52 28.82170 -81.86060 33076 ft 483 kts 176°
2026-05-06 23:52 28.78838 -81.85407 32418 ft 485 kts 176°
2026-05-06 23:52 28.75505 -81.84745 31775 ft 485 kts 176°
2026-05-06 23:52 28.72198 -81.84087 31153 ft 484 kts 176°
2026-05-06 23:53 28.68890 -81.83431 30512 ft 484 kts 176°
2026-05-06 23:53 28.65556 -81.82770 29881 ft 485 kts 176°
2026-05-06 23:53 28.62258 -81.82118 29288 ft 485 kts 176°
2026-05-06 23:53 28.58943 -81.81461 29028 ft 479 kts 176°
2026-05-06 23:54 28.52390 -81.79939 29045 ft 490 kts 171°
2026-05-06 23:54 28.45729 -81.78012 29039 ft 491 kts 171°
2026-05-06 23:55 28.39102 -81.76113 29043 ft 491 kts 171°
2026-05-06 23:55 28.32510 -81.74231 29043 ft 490 kts 171°
2026-05-06 23:56 28.25879 -81.72342 29043 ft 489 kts 171°
2026-05-06 23:56 28.19292 -81.70468 29047 ft 490 kts 171°
2026-05-06 23:57 28.12666 -81.68586 29051 ft 490 kts 171°
2026-05-06 23:57 28.06001 -81.67460 29062 ft 478 kts 186°
2026-05-06 23:58 27.99483 -81.68526 29056 ft 468 kts 199°
2026-05-06 23:58 27.93150 -81.70214 28916 ft 464 kts 199°
2026-05-06 23:59 27.90001 -81.71088 28018 ft 469 kts 199°
2026-05-06 23:59 27.86840 -81.71981 27299 ft 469 kts 199°
2026-05-06 23:59 27.83711 -81.72867 26788 ft 464 kts 199°
2026-05-06 23:59 27.80588 -81.73756 26189 ft 461 kts 199°
2026-05-07 00:00 27.77469 -81.74648 25576 ft 459 kts 199°
2026-05-07 00:00 27.74424 -81.75518 25087 ft 454 kts 199°
2026-05-07 00:00 27.71317 -81.76253 24453 ft 457 kts 192°
2026-05-07 00:00 27.69208 -81.76437 24081 ft 458 kts 186°
2026-05-07 00:01 27.64966 -81.76397 23328 ft 455 kts 184°
2026-05-07 00:01 27.61796 -81.76273 22776 ft 454 kts 178°
2026-05-07 00:01 27.58662 -81.75644 22195 ft 457 kts 167°
2026-05-07 00:01 27.55673 -81.74461 21701 ft 453 kts 160°
2026-05-07 00:02 27.52784 -81.73103 21040 ft 449 kts 160°
2026-05-07 00:02 27.49943 -81.71758 20449 ft 442 kts 159°
2026-05-07 00:02 27.47126 -81.70413 19835 ft 437 kts 159°
2026-05-07 00:02 27.44350 -81.69082 19193 ft 432 kts 158°
2026-05-07 00:03 27.41609 -81.67763 18600 ft 426 kts 158°
2026-05-07 00:03 27.38880 -81.66451 18014 ft 420 kts 158°
2026-05-07 00:03 27.36230 -81.65174 17350 ft 416 kts 158°
2026-05-07 00:03 27.33602 -81.63909 16761 ft 410 kts 157°
2026-05-07 00:04 27.30965 -81.62640 16098 ft 407 kts 157°
2026-05-07 00:04 27.28393 -81.61403 15457 ft 403 kts 156°
2026-05-07 00:04 27.25804 -81.60158 14767 ft 401 kts 156°
2026-05-07 00:04 27.23271 -81.58940 14151 ft 396 kts 156°
2026-05-07 00:05 27.20731 -81.57720 13481 ft 393 kts 155°
2026-05-07 00:05 27.18244 -81.56525 12860 ft 389 kts 155°
2026-05-07 00:05 27.15781 -81.55342 12296 ft 383 kts 155°
2026-05-07 00:05 27.13329 -81.54165 11696 ft 379 kts 155°
2026-05-07 00:06 27.10944 -81.53020 11106 ft 374 kts 155°
2026-05-07 00:06 27.08564 -81.51878 10554 ft 368 kts 155°
2026-05-07 00:06 27.06276 -81.50779 10454 ft 348 kts 155°
2026-05-07 00:06 27.04100 -81.49735 10357 ft 330 kts 155°
2026-05-07 00:07 27.02050 -81.48753 10239 ft 312 kts 155°
2026-05-07 00:07 27.00107 -81.47806 10006 ft 294 kts 154°
2026-05-07 00:07 26.98255 -81.46875 9396 ft 291 kts 154°
2026-05-07 00:07 26.96440 -81.45966 8983 ft 277 kts 154°
2026-05-07 00:08 26.94683 -81.45084 8644 ft 279 kts 154°
2026-05-07 00:08 26.92871 -81.44176 8379 ft 290 kts 154°
2026-05-07 00:08 26.91728 -81.43604 8164 ft 291 kts 154°
2026-05-07 00:08 26.89902 -81.42692 7797 ft 287 kts 154°
2026-05-07 00:09 26.88068 -81.41775 7489 ft 285 kts 154°
2026-05-07 00:09 26.86260 -81.40872 7203 ft 282 kts 154°
2026-05-07 00:09 26.84433 -81.40180 6937 ft 280 kts 173°
2026-05-07 00:09 26.82513 -81.40402 6703 ft 275 kts 201°
2026-05-07 00:10 26.80911 -81.41515 6428 ft 274 kts 220°
2026-05-07 00:10 26.79463 -81.42929 6112 ft 278 kts 221°
2026-05-07 00:10 26.78019 -81.44373 5785 ft 277 kts 221°
2026-05-07 00:10 26.76598 -81.45837 5460 ft 274 kts 222°
2026-05-07 00:11 26.75229 -81.47265 5157 ft 271 kts 222°
2026-05-07 00:11 26.73853 -81.48711 4859 ft 270 kts 222°
2026-05-07 00:11 26.72475 -81.50167 4570 ft 269 kts 222°
2026-05-07 00:11 26.71122 -81.51601 4284 ft 268 kts 222°
2026-05-07 00:12 26.69779 -81.53024 3992 ft 266 kts 222°
2026-05-07 00:12 26.68449 -81.54434 3721 ft 263 kts 222°
2026-05-07 00:12 26.67126 -81.55837 3463 ft 262 kts 221°
2026-05-07 00:12 26.65797 -81.57246 3193 ft 261 kts 221°
2026-05-07 00:13 26.64551 -81.58710 2917 ft 259 kts 231°
2026-05-07 00:13 26.63505 -81.60314 2662 ft 258 kts 232°
2026-05-07 00:13 26.62447 -81.61930 2395 ft 256 kts 232°
2026-05-07 00:13 26.61410 -81.63520 2091 ft 249 kts 232°
2026-05-07 00:14 26.60420 -81.65043 1845 ft 235 kts 232°
2026-05-07 00:14 26.59492 -81.66471 1641 ft 220 kts 233°
2026-05-07 00:14 26.58626 -81.67802 1405 ft 200 kts 233°
2026-05-07 00:14 26.57869 -81.68968 1167 ft 173 kts 233°
2026-05-07 00:15 26.57198 -81.70001 958 ft 153 kts 233°
2026-05-07 00:15 26.56603 -81.70915 705 ft 139 kts 233°
2026-05-07 00:15 26.56057 -81.71752 451 ft 129 kts 233°
2026-05-07 00:15 26.55524 -81.72567 305 ft 135 kts 235°
2026-05-07 00:16 26.54966 -81.73435 222 ft 136 kts 234°
2026-05-07 00:16 26.54434 -81.74258 36 ft 129 kts 235°
2026-05-07 00:16 26.53975 -81.74967 30 ft 84 kts 234°
2026-05-07 00:16 26.53753 -81.75285 30 ft 27 kts 210°
2026-05-07 00:17 26.53623 -81.75346 30 ft 17 kts 202°
2026-05-07 00:17 26.53583 -81.75363 30 ft 5 kts 195°
2026-05-07 00:17 26.53573 -81.75365 30 ft 0 kts 188°
2026-05-07 00:18 26.53567 -81.75368 30 ft 4 kts 206°
2026-05-07 00:18 26.53532 -81.75433 30 ft 15 kts 242°
2026-05-07 00:18 26.53472 -81.75536 30 ft 15 kts 235°
2026-05-07 00:18 26.53412 -81.75628 30 ft 14 kts 234°
2026-05-07 00:19 26.53356 -81.75714 30 ft 13 kts 234°
2026-05-07 00:19 26.53302 -81.75797 30 ft 13 kts 234°
2026-05-07 00:19 26.53242 -81.75861 30 ft 10 kts 185°
2026-05-07 00:19 26.53179 -81.75829 30 ft 9 kts 140°
2026-05-07 00:20 26.53129 -81.75786 30 ft 9 kts 144°
2026-05-07 00:20 26.53078 -81.75745 30 ft 8 kts 144°
2026-05-07 00:20 26.53029 -81.75706 30 ft 8 kts 144°
2026-05-07 00:20 26.52982 -81.75669 30 ft 8 kts 144°
2026-05-07 00:21 26.52939 -81.75630 30 ft 6 kts 119°
2026-05-07 00:21 26.52930 -81.75583 30 ft 5 kts 98°
2026-05-07 00:21 26.52927 -81.75559 30 ft 0 kts 99°